Weather in Dedilovskiye Vyselki

Russia / Tula Oblast     54°19′50″N   38°02′31″E
temp.,
°C
wind,
m/s
gust,
m/s
humid.,
%
clouds,
%
prec.,
mm/h
press.,
hPa
HPBL,
m
15 april, thu
thu1500:00+11ese225298 0.0 101612
03:00+11e335794 0.0 101627
06:00+10e366798 0.0 101585
09:00+13se3557100 0.0 1015259
12:00+17e4643100 0.0 1014825
15:00+19ese5735100 0.0 10131654
18:00+16se3749100 0.0 1013219
21:00+12wsw1180100 0.1 101522
16 april, fri
fri1600:00+11ssw2582100 0.2 1015187
03:00+11e3583100 0.2 1016119
06:00+9e3688100 0.0 1017132
09:00+12e5772100 0.0 1018427
12:00+14e6762100 0.0 1018805
15:00+15e5861100 0.6 10181022
18:00+14ese6965100 2.2 1017807
21:00+11ese2784100 8.9 1019293
17 april, sat
sat1700:00+10ene61192100 0.8 1020354
03:00+9ene51094100 1.0 1020329
06:00+8ene61195100 0.0 1020417
09:00+10ene8118277 0.2 1020604
12:00+14e81163100 0.1 10201184
15:00+15ene81160100 0.3 10191421
18:00+14ne81363100 0.3 10181026
21:00+11ene8167189 0.6 1019761
18 april, sun
sun1800:00+9ne71575100 0.0 1019608
03:00+7ne7146853 0.0 1019572
06:00+6ne71370100 0.0 1020591
09:00+6ene61074100 0.0 1021511
12:00+8ene796984 0.0 1022736
15:00+7ene5117786 0.1 1023846
18:00+9e496880 0.0 1023885
21:00+6e35808 0.0 1024102
19 april, mon
mon1900:00+4ne358730 0.0 102582
03:00+4ne511795 0.0 1025285
06:00+3ne510875 0.0 1026268
09:00+7ene797422 0.0 1026660
12:00+10ene795864 0.0 10261445
15:00+10ene6854100 0.1 10261707
18:00+9ene6855100 0.0 10271081
21:00+8e5105299 0.0 1027488